Flag for Germany Weather past 2 weeks in Wittlich, Rhineland-Palatinate, Germany

Now
36 °F

Passing clouds.


Feels Like: 27 °F
Forecast: 35 / 46 °F
Wind: 13 mph from West

Location: Spangdahlem

Current Time: Apr 1, 2015 at 8:55:57 AM

Latest Report: Apr 1, 2015 at 7:58 AM


Visibility: N/A

Pressure: 30.03 "Hg

Humidity: 81%

Dew point: 30 °F

Location of WittlichLocation

Historic Weather in Wittlich — Graph

°F

Wittlich temperature yesterday

Maximum temperature yesterday: 52 °F (at 5:58 AM)
Minimum temperature yesterday: 37 °F (at 10:58 PM)
Average temperature yesterday: 46 °F

Past Weeks' High & Low Weather Summary

 TemperatureHumidityPressure
High64 °F (Mar 18, 2:58 PM)100% (Mar 21, 2:02 AM)30.32 "Hg (Mar 21, 2:02 AM)
Low28 °F (Mar 23, 3:58 AM)32% (Mar 18, 2:58 PM)29.42 "Hg (Mar 29, 8:58 PM)
Average43 °F80%29.95 "Hg
* Reported Mar 17 5:58 AM — Apr 1 6:59 AM, Wittlich, Weather by CustomWeather, © 2015

Note: Actual official high and low records may vary slightly from our data, if they occured in-between our weather recording intervals... More about our weather records

Advertising

Wittlich weather history for previous 24 hours

 ConditionsComfort  
Time TempWeatherWind HumidityBarometerVisibility
6:59 AM
Wed, Apr 1
36 °FOvercast.13 mph87%30.00 "HgN/A
6:01 AM36 °FPartly cloudy.12 mph87%29.97 "HgN/A
5:04 AM34 °FFreezing rain. Fog.14 mph93%29.96 "Hg3 mi
4:58 AM34 °FLight snow. Fog.15 mph93%29.96 "Hg3 mi
4:01 AM36 °FPartly cloudy.12 mph87%29.95 "HgN/A
3:03 AM37 °FPassing clouds.13 mph81%29.93 "HgN/A
2:58 AM37 °FPartly cloudy.16 mph81%29.93 "HgN/A
1:58 AM36 °FPassing clouds.12 mph90%29.92 "HgN/A
12:58 AM37 °FOvercast.12 mph93%29.91 "HgN/A
12:04 AM36 °FLight freezing rain. Mostly cloudy.20 mph93%29.89 "HgN/A
12:00 AM36 °FLight freezing rain. Overcast.15 mph93%29.89 "HgN/A
10:58 PM
Tue, Mar 31
37 °FLight rain. Mostly cloudy.15 mph87%29.85 "HgN/A
9:58 PM39 °FLight rain. Mostly cloudy.23 mph87%29.86 "HgN/A
9:04 PM39 °FDrizzle. Overcast.13 mph87%29.86 "HgN/A
8:59 PM39 °FBroken clouds.15 mph87%29.85 "HgN/A
7:58 PM45 °FLight rain. Broken clouds.25 mph67%29.83 "HgN/A
6:58 PM47 °FPassing clouds.17 mph48%29.79 "HgN/A
5:58 PM48 °FSunny.24 mph50%29.76 "HgN/A
4:58 PM49 °FCloudy.22 mph67%29.73 "HgN/A
3:58 PM45 °FBroken clouds.14 mph81%29.72 "HgN/A
3:04 PM43 °FLight rain. Partly sunny.23 mph81%29.71 "HgN/A
2:58 PM43 °FLight rain. Mostly cloudy.22 mph81%29.70 "HgN/A
2:03 PM46 °FHeavy rain. Partly sunny.31 mph76%29.67 "Hg1 mi
2:01 PM48 °FHeavy rain. Broken clouds.30 mph76%29.67 "Hg1 mi
12:58 PM48 °FLight rain. Mostly cloudy.23 mph76%29.61 "HgN/A
11:58 AM50 °FScattered clouds.31 mph67%29.57 "HgN/A
11:04 AM48 °FLight rain. Mostly cloudy.20 mph82%29.56 "Hg6 mi
10:58 AM50 °FLight rain. Broken clouds.23 mph82%29.54 "Hg6 mi
9:58 AM48 °FPartly sunny.21 mph94%29.52 "HgN/A
8:59 AM50 °FLight rain. Scattered clouds.26 mph76%29.49 "HgN/A
8:01 AM50 °FPartly cloudy.37 mph76%29.47 "HgN/A
Weather by CustomWeather, © 2015

See weather overviewHow to use our weather pages